Theta_e
298 303 305 307 309 310 311 311 309 308 309 310 310 310 310 311 312 314 315 314 314 315 316 316 319 324 324 321 321 320 320 318 316 316 315 316 317 322 324 327 328 328 330 331 331 332 332 332 332 331 330 330 329 329 330 331 331 332 331 332 332 332 333 333 334 334 335 335 335 335 336 337 337 336 336 335 335 334 335 335 333 333 333 333 333
296 301 305 306 308 310 310 311 311 309 308 309 310 310 309 309 310 310 310 311 310 311 313 315 315 323 323 321 319 318 317 316 314 314 314 314 315 318 321 324 328 330 330 330 330 330 330 329 330 329 329 329 329 330 330 331 331 330 331 331 331 331 332 332 332 333 334 335 336 336 336 336 337 337 337 336 336 336 336 335 334 334 334 333 333
295 299 304 306 308 309 309 310 310 310 310 309 310 309 308 307 307 308 308 309 309 311 312 312 313 315 319 319 316 316 314 314 313 313 313 313 312 313 317 322 324 328 329 329 329 329 329 328 328 328 328 329 329 329 330 331 331 330 331 330 330 331 331 330 329 330 330 331 333 334 335 336 336 337 337 336 336 336 336 335 335 334 334 333 333
294 297 302 305 307 308 309 309 309 310 310 309 309 309 309 308 307 307 307 308 308 309 310 311 311 311 314 314 315 314 313 312 311 311 311 311 311 310 311 314 320 322 325 327 327 327 328 327 326 327 328 329 330 331 331 330 331 331 330 330 330 331 330 329 329 329 329 330 330 331 332 334 336 336 336 336 336 336 335 334 333 334 334 333 333
293 295 299 302 304 307 308 309 309 309 309 309 309 309 308 308 307 307 306 307 307 308 308 308 308 308 310 311 312 312 312 311 310 309 309 310 310 309 309 310 311 317 319 320 323 325 326 326 325 325 327 327 329 331 331 330 330 330 330 329 330 330 329 330 329 329 329 330 330 331 332 332 334 335 336 336 335 336 336 335 335 334 332 333 333
292 293 296 300 301 304 306 308 309 309 309 309 308 307 306 306 307 306 305 305 305 306 307 306 307 307 307 308 308 309 310 310 309 308 307 306 306 306 306 307 307 308 310 317 318 321 323 324 325 325 325 326 328 329 331 330 330 329 329 329 329 329 329 329 329 328 328 328 329 329 330 332 332 334 335 335 335 335 336 333 334 334 333 332 333
292 292 294 297 299 302 303 305 308 309 309 308 308 307 305 304 306 305 305 305 305 305 305 305 305 305 306 307 307 307 307 307 307 306 305 304 304 304 304 304 304 304 304 303 313 316 318 320 323 324 324 325 326 328 330 330 330 329 329 328 328 328 328 328 327 327 327 327 328 327 328 331 332 332 334 335 335 335 334 334 334 335 334 331 332
291 292 293 295 296 299 302 303 306 308 308 308 308 307 306 304 304 305 304 304 305 304 304 304 304 304 305 305 306 306 306 306 306 306 305 304 304 304 303 302 301 302 305 303 303 307 315 317 320 323 323 323 324 326 327 329 329 328 328 329 329 328 328 327 326 326 327 326 327 327 328 329 330 331 332 334 335 335 335 333 333 334 332 332 331
291 291 292 293 294 297 300 302 304 305 306 307 307 307 306 305 304 304 304 303 304 304 304 304 303 303 304 304 304 305 305 305 305 305 306 305 304 305 304 303 303 306 302 302 303 303 310 315 317 319 320 320 321 324 326 328 328 328 328 328 328 327 327 326 326 326 326 326 326 325 326 327 329 331 331 332 334 334 333 332 334 332 332 332 331
290 291 291 293 293 294 296 300 302 302 303 304 305 306 306 305 304 303 303 303 304 304 303 303 303 303 303 303 304 304 304 304 304 305 305 304 304 303 303 303 303 303 303 302 302 303 303 308 313 313 314 315 316 319 322 325 327 328 327 327 327 326 326 326 326 326 326 325 324 325 325 326 327 329 331 331 333 333 334 333 333 332 332 332 331
291 291 291 293 291 292 294 296 300 300 301 301 301 302 304 304 304 303 302 302 302 303 303 304 304 303 303 302 303 303 303 304 304 303 303 304 303 303 303 303 303 303 303 302 302 302 302 302 302 302 303 312 313 314 317 318 320 324 327 326 326 326 326 325 325 325 325 324 324 324 324 325 326 328 329 330 331 332 332 332 332 331 331 333 331
292 290 290 292 291 291 292 293 296 298 298 299 299 299 299 300 301 301 300 300 301 302 303 302 301 300 301 302 302 302 303 303 303 303 303 303 303 303 303 303 302 303 302 303 301 301 302 302 302 303 303 306 311 312 313 314 316 321 324 325 325 326 326 325 325 325 324 324 323 323 323 324 325 326 328 329 329 330 331 332 332 333 332 331 332
293 291 290 292 291 290 290 291 293 296 297 296 296 298 298 299 299 299 301 299 300 300 301 298 297 298 299 300 300 301 301 301 301 301 301 300 300 301 302 302 301 301 302 301 301 300 300 301 302 302 303 302 305 310 311 312 313 316 319 323 323 323 324 325 325 325 325 323 323 323 323 323 323 325 325 326 327 327 327 328 329 329 328 329 328
293 291 293 290 289 289 289 290 291 293 294 294 295 298 297 299 297 298 296 298 299 299 299 300 298 299 298 297 296 297 298 299 300 300 300 299 298 298 299 299 301 301 300 299 298 298 299 299 299 300 300 301 301 301 302 305 307 311 314 318 321 322 322 323 325 325 325 324 323 322 322 323 323 323 324 324 325 326 327 328 327 326 326 326 325
291 292 291 290 289 289 290 289 290 293 292 292 292 294 295 295 296 296 296 294 295 296 299 297 299 296 296 297 296 297 298 297 297 300 301 300 299 299 299 299 299 299 299 297 297 297 298 298 297 298 299 299 300 300 300 305 305 311 314 316 318 321 322 322 324 325 326 324 324 323 323 323 323 321 321 323 324 324 325 326 326 326 325 325 325
291 290 292 290 289 289 289 289 289 292 291 290 290 291 293 294 294 295 295 293 294 294 295 295 295 296 296 296 295 295 294 295 294 298 299 300 299 300 300 300 299 298 296 297 298 298 298 297 297 298 298 299 299 299 299 299 304 312 314 316 318 320 321 322 324 325 326 325 324 324 324 323 322 322 322 322 322 322 323 324 325 325 325 324 323
292 291 292 291 289 289 289 289 289 289 291 290 289 290 291 293 293 294 294 296 294 292 293 294 296 296 297 293 293 294 294 294 293 294 295 296 298 299 298 299 299 299 298 298 298 298 298 297 297 297 298 298 298 299 299 300 302 303 306 313 318 320 321 322 324 325 325 325 324 324 324 324 323 323 322 322 323 323 322 322 321 321 323 322 322
291 291 290 292 290 289 288 289 289 290 291 289 288 290 290 292 293 294 294 293 294 293 291 293 294 295 294 297 299 296 293 293 296 293 293 296 295 295 298 298 298 298 298 298 298 298 297 297 298 298 298 298 298 298 299 299 300 300 301 303 315 319 322 323 324 324 325 325 324 324 323 323 324 324 323 323 323 323 323 323 321 321 322 323 322
292 290 290 290 291 290 289 289 289 289 291 290 287 287 288 290 293 293 292 294 294 293 291 292 293 293 294 295 295 295 294 295 292 290 292 290 292 295 297 297 297 297 298 298 298 297 297 297 297 298 298 298 298 299 299 299 305 306 309 312 314 317 319 321 323 324 325 325 324 324 323 323 323 324 324 323 323 323 322 322 322 321 321 322 322
292 291 290 290 291 290 289 289 289 289 291 290 288 287 289 289 292 291 291 293 291 292 291 290 294 294 291 293 294 293 292 295 291 294 291 290 293 291 291 293 293 296 297 298 298 297 298 297 297 297 297 298 298 298 299 299 298 300 304 312 316 318 319 321 322 322 323 324 325 324 323 323 323 323 323 324 323 323 323 322 322 321 321 322 322
291 292 291 290 292 292 289 289 289 289 291 291 289 288 287 287 287 287 288 290 292 291 290 290 290 291 292 291 292 292 292 292 291 292 292 288 291 289 292 286 288 292 295 296 297 298 298 298 298 297 297 297 297 298 298 298 298 299 303 308 313 315 317 318 319 321 322 323 323 323 323 323 323 324 323 323 323 322 322 322 322 321 321 322 322
293 291 291 291 290 290 291 290 289 289 291 290 288 287 287 287 288 287 287 287 288 290 290 289 291 290 291 291 291 289 290 290 291 291 290 292 291 286 285 286 290 290 289 292 295 296 297 297 297 296 297 297 297 297 297 297 298 298 300 306 310 313 315 317 318 319 321 321 322 323 323 323 324 324 324 323 323 323 323 322 322 322 322 322 322
292 294 292 292 290 291 291 290 290 291 292 290 289 289 288 287 288 287 287 287 287 286 288 288 289 288 288 290 291 292 292 291 289 289 292 290 287 290 289 290 291 292 292 293 294 295 296 295 296 296 296 297 297 296 296 297 298 298 299 301 305 309 311 314 315 317 319 320 320 322 322 323 324 323 323 323 324 324 323 322 322 322 322 321 321
293 292 293 292 292 291 291 290 291 290 290 290 290 290 289 288 287 287 288 287 286 289 287 287 286 286 286 288 290 291 290 292 291 291 291 290 289 291 291 286 288 289 291 289 290 292 294 294 295 296 297 297 297 297 296 296 297 298 297 300 303 307 311 313 313 314 315 317 318 319 321 322 323 323 323 323 323 323 323 322 324 323 323 321 321
293 293 293 293 293 293 292 291 291 291 291 290 290 289 289 288 288 287 287 287 288 287 287 287 287 286 286 285 287 289 290 290 290 291 289 288 289 288 290 288 289 290 288 285 291 286 292 294 295 295 296 296 297 296 296 295 295 296 297 298 302 304 308 311 313 313 314 315 316 317 318 320 322 323 323 322 322 322 323 322 322 323 322 322 322
294 294 294 293 292 293 293 293 292 292 291 291 290 289 288 288 288 288 288 288 287 287 287 287 287 286 285 285 286 286 287 289 290 290 290 289 287 288 289 286 285 289 287 284 283 289 288 289 293 294 294 295 296 295 295 295 295 296 296 295 297 301 304 307 310 311 312 313 314 315 317 319 320 321 322 322 322 322 322 322 322 322 320 320 321
294 295 294 292 292 292 292 292 292 292 291 291 292 290 289 289 289 288 289 288 288 288 287 287 288 287 286 286 287 286 286 286 288 289 290 290 290 289 288 287 286 285 286 284 285 287 290 288 289 292 293 294 294 294 295 294 295 295 295 294 293 298 302 307 309 311 312 312 312 313 314 316 318 320 321 321 321 321 321 321 321 321 322 322 321
294 294 294 292 293 292 292 292 292 292 291 291 291 290 290 289 289 289 289 290 288 287 288 287 287 287 287 287 286 287 287 287 287 288 288 290 290 289 289 288 286 285 286 285 286 287 287 288 284 289 292 293 294 294 295 295 294 295 295 293 292 293 298 302 305 307 309 311 312 313 314 315 315 316 318 319 320 321 320 321 321 321 322 323 324
294 294 294 293 293 292 292 293 292 292 291 291 291 290 290 289 290 289 289 289 288 288 288 287 288 287 287 287 287 288 288 287 287 287 288 287 288 289 290 290 288 285 284 281 287 286 283 287 287 285 288 291 292 292 292 292 293 294 292 292 292 291 295 299 302 305 307 308 309 311 313 314 315 316 316 316 318 319 320 321 321 322 322 324 325
294 295 294 293 293 293 292 293 293 292 292 292 290 290 289 289 290 290 290 288 288 288 289 288 288 287 288 287 287 287 288 287 288 287 287 287 287 287 288 289 289 288 287 285 286 288 286 283 286 286 285 287 289 290 290 291 293 294 292 291 291 291 295 298 300 302 305 306 307 309 311 312 313 314 315 315 316 317 319 321 322 322 323 323 325
294 293 293 293 293 293 292 292 293 293 292 292 291 291 290 290 290 290 290 289 289 289 289 288 289 288 288 288 288 288 288 288 288 287 287 287 287 287 286 287 287 289 288 286 284 288 288 289 287 287 288 287 288 289 289 290 291 293 291 291 291 292 294 294 297 300 303 305 306 307 308 310 312 313 313 314 314 316 317 318 320 321 322 322 322
294 293 293 293 293 293 293 292 292 292 292 292 292 291 291 290 291 291 291 289 289 289 290 289 289 289 288 288 288 289 289 288 288 288 288 287 287 287 286 286 286 287 288 287 285 286 289 288 287 286 287 288 287 288 288 289 291 294 291 291 291 292 292 292 294 296 300 301 303 304 305 307 309 311 312 312 313 314 315 316 317 318 319 320 319
293 293 293 293 293 293 293 293 292 293 292 293 292 291 291 291 291 291 291 290 289 290 290 290 289 289 289 288 289 290 290 288 288 288 288 288 287 287 287 286 286 286 285 285 284 285 288 290 289 289 288 285 287 287 288 289 289 290 292 291 290 290 290 290 291 294 296 298 300 302 303 304 305 307 310 310 310 311 312 313 314 314 314 314 314
293 293 293 293 293 293 292 292 292 292 292 292 292 290 291 291 291 292 291 290 290 290 290 290 290 290 289 289 290 290 290 289 289 289 289 288 287 287 287 287 286 286 287 285 285 285 285 288 289 288 288 287 288 288 288 289 289 288 288 289 290 290 290 290 290 290 294 296 298 300 301 302 302 303 304 305 307 308 308 308 308 308 309 309 310
293 293 293 293 293 292 292 292 292 292 292 292 292 291 291 291 291 291 291 290 290 290 290 290 291 291 289 289 290 291 291 289 289 289 289 289 288 287 287 287 287 287 287 287 286 285 285 286 289 288 288 286 286 289 288 288 289 289 288 289 290 290 290 290 290 290 293 295 297 299 300 301 301 301 301 302 302 303 303 304 304 305 305 306 307
292 292 292 292 292 292 292 292 292 292 292 292 292 292 291 291 291 291 291 291 290 290 290 291 291 291 290 290 290 291 291 289 289 289 290 289 288 288 288 288 288 287 288 287 287 286 286 285 287 288 289 287 287 287 288 288 287 287 288 289 289 290 290 290 290 290 292 295 297 297 298 299 300 300 300 300 300 301 301 301 301 301 302 303 303
291 291 291 291 291 291 291 291 291 291 292 292 292 292 292 291 291 291 291 291 291 291 291 291 292 291 291 290 291 291 291 289 289 289 290 289 289 289 288 288 288 288 288 288 287 287 285 285 286 288 289 289 289 287 286 286 287 286 286 287 288 289 289 290 290 291 292 294 294 295 296 296 297 298 299 299 299 300 300 300 299 299 299 299 300
290 290 290 290 290 290 290 290 290 290 291 291 291 291 291 291 291 291 291 291 291 291 291 291 291 291 291 291 291 291 290 290 290 290 290 289 289 289 288 288 289 289 288 288 288 287 286 286 286 286 288 288 288 288 286 286 286 287 286 286 286 287 287 288 288 290 290 290 290 291 293 295 296 297 297 298 298 299 299 298 298 298 297 297 298
289 289 289 289 290 289 290 290 290 290 290 290 290 290 290 290 290 290 290 290 291 291 291 291 291 291 291 291 291 291 291 290 290 290 290 290 290 290 290 289 289 289 288 288 288 287 287 286 286 287 287 288 288 287 287 286 287 287 286 286 286 288 287 287 287 289 289 290 291 292 291 291 292 293 295 297 297 298 298 298 297 297 296 297 298
288 288 288 288 289 289 289 289 289 289 289 290 290 290 290 290 290 290 290 290 290 290 290 291 291 291 291 291 291 291 291 291 291 291 291 290 291 290 291 290 290 289 288 288 288 287 287 286 286 286 287 287 287 288 288 284 284 285 285 286 286 287 287 287 287 288 289 288 288 289 291 291 292 292 294 295 296 296 297 297 297 296 295 297 298
288 288 288 288 287 288 288 288 288 289 289 289 290 290 290 290 290 289 289 289 289 289 289 290 290 290 290 291 291 291 292 291 291 291 291 291 291 290 291 291 290 289 289 289 288 288 287 287 286 287 286 286 286 286 286 286 285 286 288 285 285 287 287 287 288 288 288 288 288 288 288 289 289 289 289 289 291 293 294 295 295 295 295 297 297
286 286 286 287 287 287 287 287 287 288 288 289 289 291 291 290 289 289 289 289 289 289 289 289 289 290 290 290 291 290 290 289 289 290 291 291 291 291 291 291 290 290 289 289 288 288 288 287 287 287 286 286 286 286 286 287 288 288 287 286 285 287 285 285 287 288 288 287 287 287 288 289 288 288 289 288 290 290 290 292 292 293 294 296 297
284 285 285 285 285 286 286 286 286 287 287 288 290 291 292 292 289 286 286 287 288 288 288 288 288 288 289 290 290 290 289 289 290 290 291 291 291 291 291 291 291 290 289 289 289 289 288 287 288 287 287 286 287 288 287 288 288 288 288 288 287 287 286 285 284 288 288 288 286 286 287 289 288 287 288 288 289 290 290 290 293 294 295 296 296
283 283 284 283 284 284 284 284 285 285 286 288 289 290 291 290 287 285 284 284 286 287 287 287 287 288 288 288 289 290 290 290 289 289 290 290 290 290 291 291 291 291 291 290 289 288 289 288 288 288 288 287 288 288 288 288 288 288 288 287 287 286 286 285 286 286 286 287 286 286 286 288 287 287 287 288 289 290 290 292 294 294 295 296 296
281 282 282 282 281 282 282 281 282 283 283 286 287 289 290 287 286 285 282 283 284 284 285 286 286 286 286 287 287 288 289 289 289 289 289 289 289 289 290 290 290 290 291 292 292 291 290 289 289 288 289 289 289 289 289 289 290 288 288 287 287 287 287 286 287 288 285 286 286 286 286 288 286 287 287 289 289 290 290 292 294 295 295 295 296
280 280 280 279 280 280 280 279 280 280 280 284 285 286 286 285 285 284 281 282 282 281 282 283 284 285 285 285 286 286 287 288 288 288 288 288 288 288 288 288 288 289 290 290 290 290 290 290 289 288 290 290 289 290 291 291 290 289 288 288 288 287 287 287 288 289 290 286 286 287 286 288 287 286 287 289 289 289 289 292 294 294 295 295 295
278 279 279 278 278 278 278 279 278 278 279 282 283 284 284 284 284 283 281 281 280 279 279 280 281 283 284 285 285 285 286 286 287 288 288 288 288 288 288 287 288 288 288 288 288 289 290 290 290 290 290 291 291 291 292 292 292 291 291 291 291 290 290 291 290 290 289 286 287 286 285 289 286 286 288 289 288 288 289 292 295 295 294 295 295
278 278 278 278 277 277 278 278 277 277 278 281 282 282 283 283 284 280 279 279 278 278 278 278 280 282 283 284 284 285 286 286 288 289 288 286 285 285 285 286 287 287 288 289 291 291 291 291 291 291 291 291 292 291 291 292 292 292 292 292 292 290 289 288 287 289 289 287 286 286 286 287 288 284 288 290 287 287 288 288 292 293 294 294 295
277 277 277 277 277 277 277 277 276 276 276 279 280 281 282 282 281 278 278 278 277 277 277 278 279 281 283 284 284 283 282 282 284 284 284 284 281 280 281 282 285 286 286 288 290 291 291 291 292 292 292 293 293 294 294 294 293 293 291 289 288 289 288 286 286 287 288 288 284 288 287 286 288 287 286 288 287 287 288 288 288 292 293 294 294
276 276 276 276 276 276 276 276 276 275 275 277 279 280 281 281 280 277 277 277 276 277 277 278 279 279 279 281 281 279 278 278 281 282 283 282 279 279 280 282 284 284 285 287 288 288 289 290 290 290 290 291 291 292 293 293 293 293 291 288 289 289 287 287 286 287 288 290 287 286 285 286 288 286 285 288 287 285 287 288 288 288 292 292 294
275 275 275 275 275 275 275 275 276 275 274 275 278 279 280 280 279 277 277 276 276 276 276 275 276 276 277 278 279 279 278 279 281 282 283 283 281 282 282 280 279 279 281 282 282 282 282 283 285 286 287 288 288 288 289 290 291 290 291 290 291 289 287 287 287 287 286 287 290 287 285 286 287 287 286 284 284 287 288 287 287 287 287 287 288
Wind_Speed
7 7 7 7 7 8 6 6 5 5 4 5 7 7 6 6 6 5 2 1 2 2 1 3 3 4 3 2 3 4 5 6 5 5 4 4 5 6 9 8 6 5 5 4 5 7 8 7 8 7 6 5 4 5 6 7 7 8 7 6 6 7 8 9 11 12 14 15 16 17 18 18 18 19 21 21 21 22 24 24 24 22 18 17 18
6 7 7 7 7 7 7 7 6 6 6 5 5 5 6 6 6 5 5 3 2 2 2 3 4 2 3 3 4 4 5 6 6 5 4 4 4 5 11 10 9 8 7 6 5 6 6 6 5 6 4 5 5 5 6 7 8 5 5 4 5 5 5 5 7 8 10 13 15 18 18 19 19 18 20 20 21 23 24 23 22 20 18 18 19
6 6 6 6 6 7 7 7 6 6 6 5 3 5 5 6 6 5 5 4 4 4 4 3 3 5 3 5 5 5 5 5 6 5 5 4 3 4 6 9 8 8 8 7 6 5 4 3 4 3 4 4 6 5 6 7 7 6 5 4 3 3 4 4 5 7 8 9 10 13 16 19 20 20 20 21 21 22 22 21 20 18 16 18 19
5 6 6 7 6 6 6 7 7 6 6 6 6 3 5 4 5 5 5 5 4 3 4 3 6 5 5 6 6 6 5 5 5 5 5 3 3 3 3 4 6 5 5 5 4 3 3 2 2 2 3 4 6 7 8 7 9 8 7 6 4 3 4 6 7 9 9 10 10 10 11 14 18 21 23 23 22 23 22 21 21 19 19 20 19
6 5 6 6 6 6 6 6 6 6 6 6 6 6 5 5 6 5 5 5 5 6 5 4 6 5 4 5 5 6 5 4 4 4 4 5 4 2 3 3 3 4 4 3 2 2 2 3 2 2 3 4 5 8 9 9 9 9 8 6 4 3 4 6 9 10 11 12 13 13 13 13 15 18 22 24 24 22 21 21 21 21 21 20 20
4 6 5 6 6 6 5 5 5 6 5 5 6 5 5 5 5 6 6 6 6 6 5 6 5 4 5 4 5 4 4 4 3 3 2 3 3 3 2 2 2 2 1 2 1 1 2 2 1 2 3 4 6 8 10 10 10 9 8 7 5 5 4 6 8 10 11 12 14 15 15 16 15 17 19 23 25 22 22 21 21 20 21 20 19
3 4 5 5 6 6 6 5 4 3 5 5 5 5 5 5 5 5 5 5 5 6 6 5 5 5 4 3 4 4 4 3 3 3 2 2 3 2 1 1 1 1 1 0 2 2 1 1 1 2 3 4 5 8 9 10 10 9 7 7 6 6 6 5 5 7 10 12 13 15 17 18 18 17 18 20 22 23 23 23 22 20 18 20 20
2 3 5 5 5 6 6 6 6 4 4 4 5 6 5 5 5 5 4 4 5 5 4 4 4 4 4 4 3 4 4 3 3 3 2 2 3 2 1 1 0 1 0 0 1 2 2 2 3 4 5 5 6 7 9 9 9 10 8 7 6 6 7 6 6 7 9 11 12 14 17 19 19 18 18 18 18 20 20 21 21 18 21 21 20
2 2 3 4 5 5 6 6 6 5 5 4 4 4 5 5 5 6 5 4 2 6 4 4 3 3 3 4 3 2 4 3 3 2 3 2 2 1 1 0 0 1 1 2 2 3 4 4 4 4 4 4 4 6 8 8 8 9 8 8 7 6 7 7 6 7 8 8 10 12 15 18 19 19 17 17 17 17 20 22 20 19 22 22 21
3 1 2 2 3 3 5 6 6 6 5 5 5 3 3 4 5 5 5 4 4 4 4 4 2 2 3 3 1 3 3 3 3 3 3 3 3 3 3 2 2 2 3 2 3 3 3 3 3 2 2 2 3 4 6 7 9 10 8 7 7 7 7 7 7 6 6 7 8 11 14 15 18 19 19 17 17 16 15 18 19 22 21 21 22
2 3 2 2 3 4 5 5 5 6 5 5 5 4 4 3 4 4 4 4 3 3 3 3 3 1 2 2 2 1 1 1 2 3 3 4 4 3 2 3 2 3 3 3 2 2 3 3 2 2 2 3 3 4 5 6 8 9 8 7 7 6 6 6 6 7 4 5 6 8 11 13 15 16 16 14 13 13 14 17 19 20 21 18 21
1 1 3 2 1 2 3 4 5 4 5 6 5 5 4 3 2 2 2 2 3 2 2 3 3 3 3 2 2 1 2 1 1 2 3 4 4 4 4 4 4 4 4 4 3 4 4 4 3 4 3 4 5 5 5 6 7 8 7 7 6 6 6 7 9 9 7 4 5 6 7 9 11 12 13 10 5 5 9 13 17 19 22 24 23
1 0 1 3 2 1 2 3 3 4 4 4 3 3 2 1 0 1 2 2 1 1 1 3 3 3 3 3 3 1 1 1 3 3 2 2 1 3 2 3 4 4 4 3 3 3 3 4 4 4 5 5 5 6 7 7 7 8 9 8 7 6 6 7 10 11 10 4 4 6 6 6 7 8 8 8 6 4 1 3 6 8 5 8 12
2 1 1 1 3 4 1 1 2 3 3 2 4 3 4 5 3 3 2 1 0 0 0 1 1 1 1 4 3 3 2 2 3 3 4 3 2 2 2 3 4 3 2 3 4 4 4 4 3 4 4 4 5 5 5 5 6 8 8 10 9 8 7 8 10 12 12 9 8 7 6 6 5 3 5 4 5 6 7 12 16 16 17 20 19
3 2 2 2 2 1 3 2 1 1 3 4 4 5 3 3 4 3 3 1 0 1 0 1 1 0 1 1 2 3 2 3 2 4 5 4 4 4 4 4 5 4 3 3 5 5 4 4 4 4 5 5 5 5 5 5 6 9 9 11 12 11 9 10 11 13 14 12 9 9 9 8 7 4 4 4 1 3 6 10 13 17 18 18 20
4 4 3 3 3 3 2 3 2 0 1 2 3 4 3 3 3 4 1 2 4 2 0 1 1 1 1 1 1 1 4 1 3 5 3 4 4 5 3 5 4 4 3 5 6 5 5 4 5 5 5 5 5 5 6 5 8 11 12 13 14 14 12 12 13 14 15 14 12 11 11 10 9 8 6 5 5 3 3 6 8 11 14 14 15
4 4 4 4 3 3 3 3 2 1 0 0 0 2 2 1 1 2 2 0 4 2 2 2 1 1 1 1 1 0 4 2 1 5 2 3 6 6 5 5 5 6 5 6 5 6 6 5 5 5 6 6 6 6 6 6 6 6 7 12 15 15 14 14 15 16 16 16 15 13 12 13 12 11 9 9 9 9 8 6 7 8 10 11 12
4 4 4 4 4 4 3 3 3 3 2 2 2 0 1 2 1 0 1 2 1 0 2 3 1 3 2 2 3 2 2 2 0 3 3 4 2 3 6 7 6 7 6 6 7 7 6 7 6 7 7 6 7 7 6 6 6 6 6 8 15 16 16 16 17 18 19 19 17 15 14 15 15 14 13 12 12 11 12 11 10 10 11 12 12
4 4 4 4 4 4 4 4 3 3 2 1 2 3 3 3 1 0 2 0 1 1 2 3 5 0 1 1 1 1 2 0 3 0 4 3 2 5 6 5 5 5 6 7 7 6 6 6 7 7 7 7 7 7 6 7 9 10 13 14 15 15 17 18 18 19 20 20 18 17 16 15 15 16 15 15 14 13 13 13 13 13 13 13 13
4 4 4 4 4 5 4 4 4 4 2 4 4 3 2 3 3 3 3 2 2 3 4 3 0 3 0 2 1 1 1 1 1 2 2 4 7 3 3 4 3 5 7 7 7 8 8 7 8 7 7 7 7 7 7 8 7 8 8 14 16 17 17 17 18 18 19 20 19 18 18 17 15 17 18 18 17 17 16 15 15 15 15 16 17
4 5 4 4 4 4 4 4 4 5 4 4 4 3 4 4 3 2 4 4 5 4 3 5 3 5 3 3 3 3 3 2 2 1 2 2 8 5 8 4 1 5 7 7 7 7 8 9 8 8 7 8 8 8 8 8 8 7 8 14 16 18 17 17 17 18 18 18 19 19 19 19 18 17 18 19 19 19 19 17 18 18 17 18 19
5 4 4 4 4 4 4 5 5 5 4 4 4 4 4 4 5 4 3 3 3 3 5 5 6 4 4 3 2 1 1 2 2 3 3 4 9 5 4 4 7 6 3 5 8 9 9 8 8 7 8 8 7 8 8 8 8 7 9 15 16 17 17 17 17 18 19 18 19 19 19 20 20 20 18 19 20 21 20 20 20 20 20 19 20
5 6 4 4 4 4 4 5 4 4 5 5 6 5 5 4 4 3 4 5 5 4 4 4 4 4 4 6 7 6 6 5 4 4 5 5 4 7 5 7 8 9 7 7 6 7 7 7 7 8 8 8 8 7 8 9 9 10 14 15 15 16 17 17 18 19 20 20 20 19 20 20 21 21 20 19 19 20 21 22 22 21 22 22 22
5 6 6 4 4 5 4 4 5 5 6 6 6 5 5 4 4 5 5 4 4 4 4 5 5 5 4 5 6 6 5 6 5 5 6 6 4 9 8 3 6 7 6 4 6 8 8 8 8 8 9 8 8 8 8 9 9 15 13 14 13 16 17 18 19 20 20 21 20 20 20 22 23 23 22 21 21 21 22 23 22 22 23 23 23
6 5 7 5 4 5 5 6 6 6 7 5 6 5 5 4 5 5 5 6 7 5 6 7 6 6 7 4 5 5 7 5 4 5 4 4 4 7 7 1 8 10 5 2 5 3 7 8 8 8 8 9 9 8 8 8 8 12 14 11 14 15 18 20 21 21 21 21 21 21 21 21 22 24 23 23 23 23 22 22 24 25 25 26 22
8 8 6 5 4 6 5 6 6 6 5 6 6 5 4 6 5 6 7 7 5 5 7 6 6 7 4 6 6 6 7 5 5 4 5 3 5 6 8 5 4 10 6 4 2 4 5 5 7 7 7 8 9 8 8 9 9 13 15 12 11 14 17 19 21 22 22 22 22 21 21 21 21 23 23 24 23 23 24 23 23 23 24 24 24
7 7 5 5 6 5 5 6 7 7 6 6 6 5 5 5 5 7 7 6 6 6 7 7 8 8 6 7 8 7 7 6 5 7 5 7 6 6 4 10 9 6 8 4 7 9 14 6 6 7 9 9 9 9 10 8 11 15 15 11 9 13 17 20 21 22 22 22 22 22 22 22 21 22 23 24 24 24 24 24 24 23 23 24 26
7 6 7 5 6 6 5 7 6 6 6 6 6 6 5 6 6 6 8 4 6 7 8 7 9 9 9 7 6 9 7 7 6 7 7 7 7 5 5 6 8 14 6 9 7 11 5 8 4 9 9 9 9 9 10 11 9 14 15 9 9 9 14 19 20 20 21 22 22 22 23 22 22 22 22 23 23 24 25 25 25 24 24 25 27
7 5 7 5 5 5 6 7 6 6 6 6 6 6 5 5 6 7 8 6 6 8 7 7 9 8 7 8 9 8 8 7 7 7 7 7 7 7 7 9 7 8 11 7 13 8 4 9 5 5 8 8 8 7 7 8 11 12 9 9 9 9 11 17 19 20 21 21 22 22 22 22 22 23 23 23 24 24 24 26 26 26 26 25 27
5 6 5 6 6 5 5 7 6 5 6 6 5 6 5 6 7 7 7 4 6 6 7 7 9 7 8 7 7 9 8 6 8 8 7 8 8 8 8 8 7 11 10 12 17 8 8 3 7 6 2 7 7 7 7 9 12 13 9 9 9 10 14 15 17 19 20 20 21 22 23 23 23 24 24 24 24 25 25 26 26 28 28 28 27
7 7 6 7 6 6 5 6 6 6 5 6 5 6 5 6 6 7 6 5 7 8 8 6 8 6 8 10 8 9 8 8 9 8 8 7 9 8 8 7 8 10 12 11 12 15 4 12 7 8 7 5 5 6 6 7 9 11 9 9 10 13 17 15 18 17 19 20 20 21 22 23 24 25 25 25 25 26 26 26 26 27 28 30 28
7 6 6 6 7 7 6 6 7 6 6 6 5 6 5 6 6 7 7 5 7 9 9 7 7 6 8 10 11 10 9 7 9 9 9 9 8 8 9 9 9 10 10 11 14 21 10 9 8 5 7 8 5 7 8 7 8 11 8 9 11 13 11 10 15 18 17 20 19 19 21 22 24 24 25 25 26 26 26 27 27 27 27 27 25
8 9 8 8 7 7 7 7 6 7 6 7 5 4 5 6 6 6 7 6 7 9 7 9 7 7 8 10 12 12 8 8 9 9 8 9 8 8 9 8 9 9 10 12 15 18 16 11 11 10 6 5 8 7 10 9 8 8 8 9 8 8 9 9 10 16 19 18 18 20 20 21 22 23 24 25 26 26 26 27 26 26 25 23 21
9 10 10 9 8 8 7 8 7 7 7 7 6 4 6 6 7 5 6 7 7 9 7 9 10 7 7 10 12 12 8 9 10 10 9 8 8 8 9 10 11 11 10 11 14 14 19 12 13 7 8 6 13 6 11 12 12 7 9 9 8 8 9 10 9 10 18 20 18 19 21 21 22 22 22 23 23 23 23 22 21 21 20 20 19
9 9 10 10 10 9 8 8 8 8 8 7 7 5 6 6 8 8 6 6 7 8 9 10 10 8 7 9 12 12 7 7 9 11 9 9 8 9 11 9 11 12 11 12 12 14 16 16 12 14 9 6 10 11 9 9 10 9 10 11 11 9 9 10 10 10 16 20 17 19 21 21 23 24 24 23 23 22 22 22 21 21 21 20 20
11 10 9 10 10 10 10 10 10 9 10 9 9 7 7 7 7 8 8 7 7 8 9 10 10 8 8 9 10 11 10 9 9 10 9 9 9 9 10 10 11 12 11 10 12 13 13 15 13 12 12 8 9 8 9 7 8 9 9 10 9 11 11 10 12 12 15 21 18 19 19 19 23 25 25 25 24 24 24 24 23 23 23 22 21
11 11 11 10 10 11 11 11 11 10 10 9 9 9 9 7 7 8 9 8 7 8 8 9 9 9 9 9 11 10 9 10 9 9 10 11 10 9 10 10 10 11 10 10 12 11 13 15 15 11 12 12 10 8 5 8 9 9 8 9 10 12 12 12 10 11 17 21 21 23 23 25 25 26 26 26 25 25 25 24 24 24 23 23 23
12 11 11 11 10 11 11 11 10 10 10 9 9 9 9 9 9 8 9 9 9 9 9 9 9 8 9 9 10 9 9 10 11 10 10 11 10 10 11 11 11 11 11 11 11 12 13 15 13 14 11 14 13 11 6 7 10 11 9 9 9 11 11 11 11 11 10 10 10 13 18 21 25 27 27 26 27 27 26 25 25 25 24 24 24
10 11 11 11 10 10 11 11 11 11 10 9 9 10 10 10 9 9 10 9 9 9 8 9 9 8 9 9 9 9 10 10 11 10 11 11 10 12 11 11 11 11 12 11 11 12 13 14 13 13 13 12 12 15 6 7 10 10 11 10 13 13 9 11 14 11 10 12 15 19 17 16 18 18 23 27 27 28 27 26 26 26 25 25 25
10 11 11 11 10 8 9 9 10 9 9 10 10 11 11 11 11 10 10 10 10 10 10 10 9 9 9 9 8 9 9 10 10 10 10 11 10 11 10 9 10 11 12 11 11 11 12 13 13 13 11 13 11 11 7 4 8 9 7 9 16 16 9 9 13 13 10 10 12 11 14 16 17 21 24 24 27 28 28 27 28 26 27 26 26
9 10 10 10 11 11 11 10 10 9 9 9 9 12 12 13 12 11 12 12 11 11 11 11 10 10 9 8 8 8 10 13 16 15 14 13 11 12 11 9 10 10 11 10 11 11 12 12 14 11 11 13 12 10 12 11 12 14 8 8 14 14 10 11 14 10 11 11 11 10 11 11 12 13 13 13 16 22 24 28 24 28 27 27 28
10 10 10 10 10 11 12 12 11 9 9 7 14 20 17 13 12 11 12 11 11 11 11 11 11 11 10 9 9 15 16 16 16 17 16 17 17 14 13 11 12 12 12 12 12 11 11 13 14 12 13 14 12 11 12 14 11 10 11 10 14 14 6 12 14 12 8 8 12 13 14 10 10 13 11 14 14 14 14 15 16 18 23 29 29
11 11 10 12 11 11 11 12 12 11 9 10 20 19 19 20 15 13 13 12 11 10 10 10 11 11 11 11 10 12 13 13 12 15 16 17 17 17 19 19 16 14 13 14 14 12 12 13 13 12 14 16 14 10 13 13 9 12 13 11 12 12 11 12 18 13 7 12 11 13 16 10 9 14 14 14 14 12 14 15 21 25 28 28 28
12 10 11 11 11 11 10 11 11 11 11 16 23 22 19 21 21 15 12 11 11 11 10 10 10 10 11 11 10 9 9 11 13 12 13 15 17 18 18 18 18 19 19 16 15 14 13 14 15 15 13 15 14 11 12 10 12 11 12 11 12 13 14 14 15 17 2 11 10 11 16 9 9 14 15 14 13 12 15 19 24 26 27 28 27
10 11 11 11 11 11 11 12 11 12 11 18 24 23 21 23 25 20 11 11 11 12 12 12 12 11 11 11 10 9 9 16 13 11 12 12 14 17 17 17 17 17 18 21 21 17 14 16 17 18 15 13 16 14 9 11 11 13 12 11 12 11 13 16 17 14 5 9 9 12 15 12 9 14 15 16 12 12 14 19 24 25 27 27 27
11 11 11 12 12 12 12 12 12 11 12 18 26 26 24 26 26 21 10 11 10 11 13 13 12 12 12 11 11 11 10 11 11 13 13 13 13 13 12 11 10 12 14 17 18 21 19 16 16 18 17 11 16 16 12 10 13 14 13 14 12 13 15 17 17 15 13 9 13 10 13 17 8 9 15 17 9 11 14 16 25 27 29 28 28
11 11 11 12 12 12 13 13 11 12 11 23 25 27 27 27 28 21 11 10 10 11 12 12 13 12 11 11 11 11 11 10 10 13 14 14 15 14 14 13 12 11 10 10 9 10 10 11 14 17 17 15 16 18 16 13 16 16 14 16 17 15 16 15 15 16 12 9 11 8 17 19 5 11 17 16 6 10 14 13 19 22 29 29 29
10 9 10 11 13 14 13 13 13 14 14 24 27 27 29 27 30 15 12 12 12 11 12 11 11 10 10 10 10 11 10 11 12 19 20 19 19 19 18 17 15 12 11 10 14 15 15 14 14 15 15 16 18 18 17 14 14 15 15 15 15 15 14 15 18 17 14 7 12 12 15 17 8 10 16 12 7 13 13 12 15 26 27 29 29
10 10 10 10 10 11 13 12 13 14 13 19 27 28 27 30 23 15 15 14 14 14 12 11 10 9 9 11 14 14 16 15 20 27 28 25 19 20 20 19 16 15 12 9 12 16 19 21 23 26 26 27 27 27 27 28 21 18 15 15 17 14 13 15 19 17 16 8 9 15 14 17 16 11 12 14 10 12 14 13 12 15 25 28 30
10 10 10 10 9 9 12 13 13 14 13 17 25 26 27 28 25 16 13 12 13 12 12 11 10 12 16 21 17 15 16 16 23 28 28 23 19 19 18 17 16 15 11 9 8 10 16 20 23 25 25 26 27 28 27 26 25 21 16 19 18 13 14 15 19 18 16 12 11 12 11 17 17 6 9 14 10 10 15 12 13 13 18 24 29
9 10 10 9 10 9 10 12 15 15 14 16 23 25 27 28 24 15 13 12 13 13 14 14 13 11 11 12 18 17 17 21 30 29 30 23 16 14 18 19 20 19 17 16 15 18 15 15 15 15 16 18 18 16 16 23 24 22 19 19 17 16 16 16 17 16 18 16 13 14 13 16 15 10 10 9 13 13 12 11 12 12 12 12 13
Wind_Direction
335 332 326 343 343 336 336 343 350 340 351 44 15 3 5 9 16 29 75 133 168 208 237 277 252 247 165 95 102 106 104 93 94 82 73 71 74 85 97 112 116 100 104 98 106 116 134 149 162 174 186 181 190 208 222 227 228 232 234 237 251 263 272 271 268 265 261 257 253 250 246 242 235 229 223 216 215 216 218 216 218 220 216 223 228
332 325 335 342 347 346 339 345 350 352 341 40 37 11 14 14 15 21 9 15 4 12 353 15 346 179 121 103 88 84 85 94 91 88 77 78 74 79 83 86 105 119 127 148 142 130 149 165 168 190 200 216 225 229 235 243 246 245 256 252 258 268 282 295 304 306 302 291 275 264 258 253 248 243 241 235 229 225 222 221 220 216 206 214 223
343 332 330 341 350 357 351 336 351 0 353 340 51 62 30 27 17 16 19 7 11 2 347 36 41 43 77 94 80 77 84 94 101 102 94 81 94 95 97 102 108 121 132 139 136 136 149 167 198 227 251 267 275 269 258 255 254 247 242 249 247 254 278 299 325 332 325 319 315 304 281 261 253 249 244 242 240 240 237 232 226 216 215 217 218
345 342 338 337 345 353 3 356 348 356 355 354 349 26 94 70 42 13 13 22 26 18 11 37 64 40 72 76 88 85 77 92 101 110 117 113 115 117 115 105 99 104 112 119 134 154 173 184 220 270 290 297 292 277 261 247 242 240 246 248 260 285 311 332 339 341 334 329 323 311 302 294 271 253 248 246 242 240 238 237 233 225 223 221 216
340 344 338 331 331 346 6 14 353 351 358 352 349 349 0 75 56 43 34 25 24 19 17 34 64 47 51 71 87 101 108 102 111 124 147 151 148 131 101 103 112 101 94 84 92 160 204 203 193 229 261 263 271 276 265 251 245 245 245 252 271 298 321 336 343 347 344 339 335 329 320 303 287 271 255 247 244 239 234 233 233 230 227 224 221
349 344 345 338 335 339 351 10 8 355 355 357 2 356 4 7 70 68 38 40 28 17 14 42 40 60 52 51 72 74 89 112 125 127 117 86 65 82 90 115 118 117 94 124 124 207 215 220 215 207 244 256 269 275 269 256 241 241 242 247 259 280 301 321 339 354 355 354 351 343 333 323 311 289 270 252 247 237 235 237 233 229 229 226 224
351 354 343 345 340 337 346 344 346 18 12 9 6 7 10 15 4 45 86 56 58 32 27 36 29 39 55 46 73 82 76 85 87 86 90 100 89 75 70 65 63 51 31 7 338 347 16 1 276 234 231 253 266 268 266 257 250 243 241 249 267 272 277 302 329 345 351 349 348 348 344 335 323 309 288 271 251 243 237 234 232 230 228 232 224
359 12 352 347 344 334 331 329 340 351 38 29 14 16 6 13 13 14 10 71 83 63 45 47 43 42 28 50 47 88 94 89 80 73 47 68 71 70 46 39 53 109 134 303 290 289 268 224 235 231 225 236 254 260 264 260 263 251 244 252 256 260 273 286 311 334 338 341 345 346 349 344 335 322 304 286 268 246 237 237 235 234 232 228 227
347 33 19 347 346 342 330 335 337 347 1 25 52 26 16 12 15 13 25 352 41 106 80 51 59 55 54 59 40 52 100 112 111 107 86 75 84 100 86 26 316 266 218 224 231 240 261 243 236 248 238 229 260 275 268 263 267 251 241 244 247 260 276 285 307 327 333 345 351 347 344 344 341 331 317 297 280 258 241 239 235 235 236 228 226
325 16 46 351 342 339 332 342 343 351 358 12 26 33 51 37 24 21 14 24 4 13 81 102 83 50 68 87 93 102 117 116 127 130 133 142 152 170 186 189 204 233 239 232 228 245 259 270 273 300 308 295 293 296 298 281 288 275 238 244 252 263 273 291 304 316 334 343 356 354 344 340 344 337 328 315 290 270 248 236 234 238 235 230 227
317 330 20 30 3 352 348 345 350 351 3 10 18 20 24 46 63 15 25 39 35 34 22 30 47 44 78 76 53 24 33 122 144 150 156 175 187 192 179 205 208 223 235 232 251 259 248 256 261 249 256 254 258 270 285 289 293 295 266 254 267 266 277 286 290 294 322 325 344 350 348 340 343 348 341 329 310 286 263 251 245 240 239 230 225
262 309 335 338 41 4 343 345 359 4 6 9 360 11 34 27 23 97 39 6 15 28 43 54 36 33 359 5 64 44 320 312 266 212 194 187 197 192 202 198 204 213 220 222 219 220 223 224 225 228 220 234 230 234 242 259 270 277 275 266 272 288 294 291 288 290 294 308 323 336 340 343 339 350 357 348 328 272 248 246 245 242 242 236 216
246 177 329 319 326 339 33 354 0 8 9 355 336 332 353 37 59 68 74 64 29 5 4 66 41 349 357 346 339 337 290 301 298 302 279 278 280 243 246 216 221 216 222 235 235 242 238 236 235 236 234 231 246 246 240 249 266 276 284 283 282 285 292 291 289 287 288 289 308 317 315 323 340 342 342 358 20 47 96 221 237 222 150 160 143
256 231 198 250 310 329 356 50 18 1 346 337 3 11 1 17 12 34 19 81 77 234 217 147 29 106 346 330 333 318 296 275 251 245 244 252 235 240 251 249 255 249 264 254 254 251 253 252 258 259 253 246 246 251 255 251 255 258 269 278 278 274 273 276 279 281 277 268 270 290 296 295 300 354 2 348 14 45 92 112 117 115 116 115 116
248 227 235 232 232 264 297 293 99 52 22 358 2 6 10 24 25 26 334 12 30 280 72 78 73 158 135 57 329 359 325 327 314 271 244 233 222 227 230 238 243 240 233 246 252 253 252 249 250 249 251 250 245 246 250 253 248 251 256 265 269 265 262 265 270 275 278 277 268 264 264 274 269 263 278 291 332 72 98 121 120 123 128 136 142
255 248 238 227 224 236 257 282 302 124 110 27 350 344 5 9 40 28 44 359 359 317 37 155 144 105 329 185 234 95 321 315 314 286 249 236 221 240 235 247 259 267 256 251 249 248 249 244 248 242 245 244 246 249 251 250 260 261 260 260 261 261 261 264 268 271 276 277 272 260 256 256 251 254 236 227 218 239 168 137 140 141 147 154 155
245 251 248 253 230 224 221 245 258 265 209 134 310 288 283 215 148 81 72 76 336 332 314 15 336 195 151 68 7 268 226 237 279 281 195 200 231 223 226 228 238 242 237 248 246 246 249 248 245 245 245 246 247 244 245 252 259 262 265 261 260 260 262 262 264 270 272 274 270 259 247 246 247 241 236 227 222 215 205 203 196 194 178 175 180
250 247 247 254 264 241 218 215 248 262 221 217 215 278 298 327 301 128 153 179 171 166 311 317 272 275 233 235 180 200 218 248 158 285 291 228 239 214 213 215 214 221 224 235 235 240 229 247 239 243 234 233 237 241 239 244 241 246 244 252 255 261 265 265 267 268 268 266 264 256 251 245 241 238 238 231 226 216 211 208 211 205 205 197 194
262 246 252 251 253 263 257 244 237 225 240 219 253 226 215 209 201 49 280 4 78 283 236 247 327 251 34 307 322 318 159 121 252 19 327 321 297 259 252 237 232 237 247 245 246 247 247 235 244 241 242 236 236 238 240 241 242 240 241 243 250 255 261 263 262 265 266 264 260 255 244 246 242 237 234 230 227 224 218 211 208 207 204 204 201
271 267 251 253 250 261 256 266 270 267 228 231 236 250 258 277 206 189 168 187 183 222 273 308 26 272 328 341 311 320 353 335 151 208 217 297 303 311 289 292 291 257 244 247 243 238 246 242 241 243 242 242 237 238 239 240 240 245 249 250 251 253 252 254 259 263 264 262 259 257 251 244 245 245 238 232 226 222 221 217 216 214 212 210 206
258 264 263 250 251 251 259 263 262 266 262 271 267 258 244 252 254 229 198 201 189 193 170 227 215 247 327 326 356 326 332 338 353 57 214 253 284 287 292 324 263 262 251 250 251 244 238 239 233 231 233 240 231 232 233 236 239 238 242 245 247 248 250 252 255 257 259 260 259 255 252 248 244 245 245 238 232 227 226 223 221 217 217 216 214
280 261 268 256 253 254 256 253 255 262 266 256 265 271 269 266 266 263 247 238 223 193 203 209 200 223 206 194 206 318 320 300 274 238 270 215 250 259 243 270 290 286 290 261 247 240 237 236 238 235 234 236 234 229 232 232 235 235 238 240 242 244 247 250 253 254 256 257 258 258 254 249 245 243 246 245 237 233 230 226 223 220 218 217 218
290 286 263 264 256 246 246 250 253 260 266 267 258 254 257 249 252 247 261 262 272 247 257 247 222 220 216 198 212 199 207 202 206 204 200 232 271 250 226 219 236 275 234 243 247 245 240 235 234 238 233 233 234 228 227 231 232 232 235 235 237 241 246 251 254 256 256 256 256 255 254 251 247 246 243 242 241 237 235 230 228 226 226 223 220
287 284 282 267 254 255 242 252 256 251 253 247 260 255 261 265 270 263 262 250 249 260 257 268 255 245 243 230 232 223 230 222 222 203 202 233 223 280 285 276 270 226 265 275 243 247 242 237 232 232 233 231 231 224 225 226 231 233 235 241 240 244 248 251 253 254 255 255 255 255 254 252 249 246 244 242 239 236 234 233 230 230 229 228 223
287 281 274 267 258 260 254 243 248 241 245 245 249 252 255 256 260 268 266 266 258 257 266 256 251 256 259 245 227 230 240 234 221 223 231 225 228 280 276 257 269 300 288 332 294 268 228 242 236 229 233 233 234 229 225 224 230 233 233 242 238 242 245 250 253 253 254 254 253 253 252 252 252 249 247 245 244 240 237 236 235 231 228 228 226
288 279 272 276 258 245 250 250 244 248 241 240 245 245 237 239 247 251 252 253 260 253 254 262 261 258 258 274 269 257 255 239 234 230 246 245 261 240 286 293 248 280 294 308 299 311 294 250 237 235 232 234 236 229 228 227 228 236 232 231 240 238 241 244 248 251 253 253 254 254 253 251 250 250 251 249 246 245 243 240 238 236 236 230 227
277 280 291 277 267 262 250 251 251 245 243 245 245 241 235 240 240 243 251 248 248 245 251 252 260 260 257 244 259 259 257 249 229 239 221 228 231 235 218 279 288 264 280 249 277 229 255 274 232 233 226 231 227 227 227 224 228 229 232 231 237 239 240 244 247 249 249 249 250 250 251 252 250 249 250 252 252 248 247 244 242 241 235 233 233
283 285 285 278 275 273 268 257 258 255 247 244 246 243 238 233 245 242 250 236 242 240 244 243 251 251 251 253 253 258 250 245 233 236 227 230 230 233 213 226 255 285 269 277 259 263 213 244 289 232 229 224 228 223 224 227 229 231 232 231 230 238 238 241 244 246 248 249 249 249 249 249 249 249 249 250 251 252 250 248 245 242 239 234 230
284 285 288 285 275 271 277 275 270 262 263 256 251 250 246 241 246 247 250 245 234 243 243 238 244 246 249 243 240 252 254 245 246 239 237 232 231 231 215 225 215 244 285 283 275 262 274 201 234 282 219 227 233 226 227 223 229 226 226 224 227 231 231 233 236 239 242 245 247 248 247 248 248 249 249 248 248 250 251 250 246 244 242 238 232
293 292 294 294 290 281 274 279 277 276 264 266 257 254 246 247 247 252 252 256 248 255 248 242 248 241 248 249 241 249 249 243 245 239 235 232 233 228 226 229 207 233 247 267 278 256 273 240 226 252 250 232 227 238 219 230 229 225 227 225 225 229 230 227 230 233 237 240 243 245 247 247 247 247 248 249 249 249 249 251 250 246 244 240 238
311 310 308 303 299 296 285 282 285 280 275 265 260 258 239 251 250 255 258 243 250 256 253 240 249 237 249 252 248 250 247 240 245 241 236 235 235 232 234 224 225 226 243 252 268 270 183 264 240 239 252 246 232 240 240 236 236 226 228 227 229 230 231 236 236 234 235 237 239 241 244 247 247 247 248 248 249 249 249 249 251 252 249 246 241
322 319 314 308 307 306 303 297 295 290 285 279 268 265 260 252 259 261 261 240 249 254 260 245 249 238 244 253 252 248 247 236 246 243 238 233 231 232 230 230 231 226 233 242 247 266 254 254 271 265 242 259 258 250 252 254 246 237 232 233 233 232 236 241 241 238 236 237 237 237 239 242 245 247 248 249 250 250 250 249 250 251 253 254 250
340 336 334 327 319 315 312 309 303 301 299 297 288 276 272 269 264 257 267 256 253 262 258 264 252 245 246 251 257 254 246 241 245 248 240 237 230 230 233 231 234 230 221 235 247 260 269 258 263 263 247 224 265 225 254 252 255 248 239 243 240 231 233 236 239 239 238 235 233 235 236 237 238 242 245 248 250 251 252 252 252 251 252 255 257
350 343 343 338 335 331 328 321 317 310 306 300 301 295 285 281 277 265 264 261 257 261 262 264 263 249 247 254 260 263 246 237 248 251 245 242 229 232 232 228 235 235 223 231 244 253 265 273 270 248 262 195 253 214 234 247 254 250 251 250 246 234 235 236 237 242 238 237 233 233 235 235 237 237 240 245 248 250 252 253 256 257 258 259 260
352 356 347 346 343 342 338 334 330 326 322 316 311 309 294 286 285 285 272 264 263 265 266 264 265 263 256 252 261 267 262 245 244 252 252 247 237 235 239 232 237 238 235 226 241 253 258 263 265 277 255 246 228 252 240 241 249 242 242 243 244 241 237 239 239 242 240 236 229 230 232 233 236 237 237 239 241 245 247 249 251 253 255 256 256
358 356 357 352 352 352 350 346 345 339 336 333 328 321 309 299 295 291 291 281 267 266 267 272 273 269 261 264 263 265 267 260 255 258 256 252 244 243 244 242 240 244 240 237 232 246 258 267 260 260 271 259 256 243 256 256 242 249 237 249 245 246 244 238 237 242 243 240 231 228 231 231 234 238 238 238 238 239 241 243 245 247 249 251 252
1 359 359 360 358 358 356 351 347 347 343 338 336 332 328 321 308 304 299 296 287 280 276 275 276 274 270 263 268 268 269 266 263 259 260 257 252 248 248 247 248 247 246 240 241 238 251 256 266 258 269 267 263 258 223 245 256 253 256 246 244 247 247 245 244 241 247 245 240 236 235 237 238 239 240 239 239 239 238 238 240 243 244 245 247
1 3 2 0 1 357 355 353 350 348 345 345 341 338 335 333 328 320 314 308 303 296 291 286 282 278 274 272 271 268 268 265 265 263 262 261 260 255 252 253 251 252 252 250 246 247 247 255 257 269 259 267 272 259 222 222 251 260 260 256 260 251 247 252 243 244 239 239 238 241 240 239 238 238 238 240 240 239 239 237 237 238 240 241 241
3 2 0 359 359 357 354 353 354 350 348 347 348 348 345 340 337 330 325 320 314 311 303 298 293 287 281 278 276 273 270 266 268 266 266 266 263 260 255 256 252 256 257 255 252 252 252 257 259 253 263 259 260 272 247 210 242 245 256 269 265 251 235 242 253 243 238 243 242 240 238 233 234 237 238 239 240 240 240 239 238 236 236 238 240
4 1 359 356 352 355 354 354 351 350 349 351 353 352 347 345 341 337 332 327 322 318 313 308 304 297 291 285 279 276 273 271 270 270 266 271 267 268 263 257 258 256 259 259 257 255 258 257 257 261 253 263 263 259 268 236 267 257 226 245 259 266 252 244 243 253 245 237 247 246 242 243 245 243 242 241 240 238 239 240 239 236 234 235 237
0 358 356 356 353 354 355 355 353 352 355 355 356 349 348 346 347 342 339 333 327 323 319 316 311 308 304 298 292 285 280 277 272 270 269 267 274 278 273 265 266 261 263 261 260 260 261 261 264 259 262 259 256 264 264 254 245 256 252 211 255 258 264 272 262 237 241 245 250 245 247 229 237 238 235 237 237 235 238 235 238 236 234 234 235
359 356 357 358 358 357 353 352 352 355 353 355 348 348 350 350 348 346 340 335 330 326 322 320 317 316 312 308 303 298 294 291 287 283 279 273 267 263 271 275 274 272 269 269 265 261 264 264 263 266 263 260 257 248 256 255 258 262 254 245 256 266 258 260 268 250 221 225 248 251 247 230 230 248 236 238 238 226 235 230 232 231 232 233 233
359 357 356 359 359 356 355 351 349 349 349 347 347 348 349 354 356 351 342 333 328 325 321 318 317 315 314 313 312 309 305 300 297 292 289 286 282 275 270 264 261 265 275 272 269 268 267 267 269 263 261 267 263 253 254 262 254 251 256 250 254 264 258 263 270 269 182 210 233 249 257 231 206 241 241 236 238 226 232 231 229 230 231 232 232
358 353 359 0 356 355 353 352 349 347 343 344 345 345 349 356 356 349 339 332 329 326 323 320 316 314 312 312 310 311 307 304 304 302 296 291 288 285 282 276 270 262 256 258 270 272 267 272 271 265 265 265 272 258 259 261 259 259 253 250 249 251 256 252 255 263 216 181 221 242 255 238 194 236 247 241 235 227 231 231 230 230 232 232 232
350 355 355 357 355 354 352 350 349 345 342 343 343 343 347 352 349 346 338 333 332 329 326 323 319 317 314 311 311 308 308 307 306 302 301 300 295 291 286 283 277 270 266 262 257 257 266 267 272 273 265 274 275 266 254 258 257 260 260 253 250 248 249 253 255 263 237 187 207 241 259 250 184 229 246 245 231 230 235 234 234 233 233 233 232
354 351 353 355 352 352 351 347 345 342 342 341 342 343 345 345 344 344 331 331 329 328 326 321 316 314 312 312 312 310 309 308 304 305 305 304 304 303 301 295 287 278 272 267 263 260 257 259 264 269 272 264 268 274 267 264 266 263 264 262 256 255 252 251 258 256 250 165 213 242 260 257 196 220 246 252 223 228 234 230 230 231 232 230 231
350 349 350 349 347 345 344 343 341 342 339 341 342 342 343 341 341 340 329 325 324 324 321 316 311 308 309 308 305 304 305 303 303 306 310 312 312 309 303 299 293 289 280 275 271 268 264 257 259 263 269 267 265 270 271 262 261 265 263 266 266 261 264 269 267 256 251 186 205 205 252 261 169 214 246 253 224 227 236 225 221 226 230 231 231
345 344 345 349 345 344 341 339 341 338 338 340 341 341 340 340 341 336 330 325 323 320 318 316 310 308 307 306 307 308 310 314 321 324 328 326 320 314 309 302 296 287 279 272 269 267 266 268 269 270 271 270 266 265 268 266 265 267 267 266 266 263 266 270 267 265 255 206 186 204 245 259 227 203 251 255 216 239 239 236 228 230 231 232 232
344 342 345 341 337 334 334 337 338 334 334 340 340 339 338 340 341 334 331 327 322 321 318 313 311 314 326 335 336 334 330 328 327 326 322 321 313 308 303 300 294 291 288 286 274 274 276 274 275 275 275 276 274 272 270 267 264 266 270 267 261 260 257 261 262 264 259 230 193 207 233 258 250 225 253 259 231 244 245 236 234 226 228 232 233
341 341 337 333 332 334 332 336 337 332 331 337 338 335 337 340 338 329 322 319 314 316 317 325 335 332 323 321 322 321 320 317 319 318 317 314 304 299 295 295 298 300 300 309 301 287 284 286 283 281 281 281 279 277 274 270 266 262 260 260 262 262 254 250 261 263 266 248 223 191 224 240 257 205 226 258 255 232 245 240 235 231 225 233 235
336 335 334 329 330 330 333 330 331 331 331 332 335 336 337 337 333 325 321 315 320 327 329 321 318 317 316 321 322 322 321 320 318 316 316 320 314 314 319 315 307 303 303 311 307 302 295 287 272 272 270 270 271 271 269 265 260 254 250 255 262 257 255 254 257 266 271 258 235 167 214 245 247 227 221 258 259 253 237 232 231 229 227 225 231